User: anonymous   Login
Location: Unspecified
(0.0000°N, 0.0000°E)
Time: 20:47:17
(UTC+00:00)
Language:

TBA - TO BE ASSIGNED - Orbit

View from above orbital plane
View from above orbital plane
View from above satellite
View from above satellite

Ground track
Ground track

The orbit is defined by the following mean orbital elements,

1 68083U          26145.38719036 +.00000000 +00000-0 +43338-3 0 00007
2 68083  53.1585 182.0737 0001026  79.1731 280.9387 15.34373962    09
Epoch (UTC): 25 May 2026 09:17:33
Eccentricity: 0.0001026
inclination: 53.1585°
perigee height: 462 km
apogee height: 463 km
right ascension of ascending node: 182.0737°
argument of perigee: 79.1731°
revolutions per day: 15.34373962
mean anomaly at epoch: 280.9387°

The dashed part of the orbit path shows where the satellite is in the earth's shadow,  

DLR